Location: Moscow
(55.7500°N, 37.5830°E)
Time: 01:05:56
(UTC+03:00)

Explorer 7 - Pass Details

Date: 01 December 2021
Orbit: 483 x 674 km, 50.3° (Epoch: 17 January)

Event Time Altitude Azimuth Distance (km) Brightness Sun altitude
Rises 09:45:27 0° 252° (WSW) 2,697 10.2 5.9°
Reaches altitude 10° 09:47:50 10° 244° (WSW) 1,774 9.4 6.1°
Maximum altitude 09:51:32 37° 177° (S) 810 8.6 6.4°
Drops below altitude 10° 09:55:05 10° 109° (ESE) 1,698 10.3 6.6°
Sets 09:57:20 0° 101° (E) 2,564 11.0 6.8°
